Home > Weather > U.S.A. > Vevay > Past weeks

Flag for U.S.A. Weather past 2 weeks in Vevay, Indiana, U.S.A.

41 °F


Feels Like: 41 °F
Forecast: 36 / 48 °F
Wind: No wind

Location: Cincinnati / Northern Kentucky International Airport

Current Time: Dec 2, 2015 at 12:42:22 AM

Latest Report: Dec 1, 2015 at 11:52 PM

Visibility: 10 mi

Pressure: 29.91 "Hg

Humidity: 89%

Dew point: 38 °F

Location of VevayLocation

Historic Weather in Vevay — Graph


Vevay temperature yesterday

Maximum temperature yesterday: 55 °F (at 5:52 AM)
Minimum temperature yesterday: 41 °F (at 9:52 PM)
Average temperature yesterday: 50 °F

Past Weeks' High & Low Weather Summary

High66 °F (Nov 26, 2:52 PM)100% (Nov 28, 10:52 PM)30.54 "Hg (Nov 28, 10:52 PM)
Low20 °F (Nov 23, 12:52 AM)26% (Nov 20, 12:52 PM)29.70 "Hg (Nov 18, 4:52 PM)
Average46 °F69%30.17 "Hg
* Reported Nov 16 9:52 PM — Dec 1 9:52 PM, Vevay, Weather by CustomWeather, © 2015

Note: Actual official high and low records may vary slightly from our data, if they occured in-between our weather recording intervals... More about our weather records


Vevay weather history for previous 24 hours

Time TempWeatherWind HumidityBarometerVisibility
9:52 PM
Tue, Dec 1
41 °FOvercast.3 mph89%29.94 "Hg10 mi
8:52 PM44 °FOvercast.No wind79%29.94 "Hg10 mi
7:52 PM45 °FOvercast.5 mph80%29.93 "Hg10 mi
6:52 PM45 °FOvercast.No wind86%29.92 "Hg10 mi
5:52 PM46 °FMostly cloudy.7 mph83%29.91 "Hg10 mi
4:52 PM50 °FBroken clouds.8 mph80%29.90 "Hg10 mi
3:52 PM52 °FBroken clouds.9 mph75%29.87 "Hg10 mi
2:52 PM53 °FPartly sunny.7 mph83%29.87 "Hg10 mi
2:02 PM52 °FMostly cloudy.8 mph88%29.88 "Hg10 mi
1:52 PM51 °FMostly cloudy.6 mph92%29.87 "Hg7 mi
12:52 PM51 °FDrizzle. Fog.9 mph92%29.88 "Hg2 mi
11:52 AM53 °FMostly cloudy.8 mph93%29.89 "Hg8 mi
10:52 AM53 °FMore clouds than sun.9 mph89%29.89 "Hg8 mi
9:52 AM54 °FMostly cloudy.8 mph93%29.88 "Hg7 mi
8:52 AM54 °FLight rain. Fog.5 mph97%29.87 "Hg1 mi
7:52 AM55 °FLight rain. Fog.5 mph96%29.87 "Hg1 mi
6:52 AM54 °FFog.3 mph100%29.85 "Hg1 mi
5:52 AM55 °FLight rain. Low clouds.6 mph100%29.86 "Hg7 mi
4:52 AM54 °FHeavy rain. Fog.8 mph97%29.87 "Hg3 mi
3:52 AM51 °FFog.7 mph96%29.88 "Hg4 mi
2:52 AM49 °FLow clouds.6 mph97%29.89 "Hg9 mi
1:52 AM48 °FLow clouds.5 mph96%29.91 "Hg10 mi
12:58 AM46 °FHeavy rain. Fog.7 mph100%29.93 "Hg2 mi
Weather by CustomWeather, © 2015

See weather overviewHow to use our weather pages